This is the latest recevied weather packets stored in our database for station/object SQ3RAX-13. If no packets are shown the sender has not sent any weather packets the latest 10 day(s).
| Time | Temp. | Humidity | Pressure | Rain* | Wind** | Luminosity | Snow |
|---|---|---|---|---|---|---|---|
| 1777799767 | 23.89° C | 35% | 1015 hPa | 0 mm | - | - | - |
| 1777799167 | 23.89° C | 35% | 1015 hPa | 0 mm | - | - | - |
| 1777798568 | 23.89° C | 39% | 1015 hPa | 0 mm | - | - | - |
| 1777797968 | 23.33° C | 40% | 1015 hPa | 0 mm | - | - | - |
| 1777797368 | 23.33° C | 40% | 1015 hPa | 0 mm | - | - | - |
| 1777796767 | 22.22° C | 38% | 1015 hPa | 0 mm | - | - | - |
| 1777796167 | 21.67° C | 39% | 1015 hPa | 0 mm | - | - | - |
| 1777795567 | 21.67° C | 39% | 1015 hPa | 0 mm | - | - | - |
| 1777794967 | 21.67° C | 44% | 1015 hPa | 0 mm | - | - | - |
| 1777794367 | 21.11° C | 45% | 1015 hPa | 0 mm | - | - | - |
| 1777793767 | 21.11° C | 45% | 1015 hPa | 0 mm | - | - | - |
| 1777793167 | 19.44° C | 44% | 1015 hPa | 0 mm | - | - | - |
| 1777792567 | 18.89° C | 47% | 1015 hPa | 0 mm | - | - | - |
| 1777791967 | 18.33° C | 53% | 1015 hPa | 0 mm | - | - | - |
| 1777791367 | 18.33° C | 53% | 1015 hPa | 0 mm | - | - | - |
| 1777790767 | 18.33° C | 53% | 1015 hPa | 0 mm | - | - | - |
| 1777790167 | 16.67° C | 51% | 1016 hPa | 0 mm | - | - | - |
| 1777789567 | 16.67° C | 51% | 1016 hPa | 0 mm | - | - | - |
| 1777788967 | 16.11° C | 53% | 1015 hPa | 0 mm | - | - | - |
| 1777788367 | 15.56° C | 58% | 1016 hPa | 0 mm | - | - | - |
| 1777787767 | 15.56° C | 58% | 1016 hPa | 0 mm | - | - | - |
| 1777787167 | 15° C | 61% | 1016 hPa | 0 mm | - | - | - |
| 1777786567 | 15° C | 61% | 1016 hPa | 0 mm | - | - | - |
| 1777785967 | 13.33° C | 60% | 1016 hPa | 0 mm | - | - | - |
| 1777785367 | 12.78° C | 63% | 1016 hPa | 0 mm | - | - | - |
* Rain latest hour (hover to see other rain measurements)
** Current wind speed in m/s (hover to see current wind gust speed)